Radiation Dose at Monitoring Post of Fukushima Daini Nuclear Power Station
Date,Time,MP-1(microSv/h),MP-2(microSv/h),MP-3(microSv/h),MP-4(microSv/h),MP-5(microSv/h),MP-6(microSv/h),MP-7(microSv/h),Wind Direction,Wind Velocity(m/s),Rain
2018/01/14,00:00,0.339,0.206,0.344,0.321,0.304,0.171,0.103,west-northwest,7.3,No
2018/01/14,00:10,0.341,0.205,0.344,0.321,0.305,0.171,0.103,west-northwest,6.5,No
2018/01/14,00:20,0.339,0.206,0.344,0.322,0.305,0.171,0.102,west-northwest,8.4,No
2018/01/14,00:30,0.339,0.207,0.343,0.321,0.303,0.171,0.102,west-northwest,8.4,No
2018/01/14,00:40,0.340,0.205,0.343,0.322,0.304,0.170,0.101,west-northwest,8.1,No
2018/01/14,00:50,0.341,0.205,0.343,0.320,0.304,0.171,0.102,west-northwest,7.3,No
2018/01/14,01:00,0.339,0.206,0.343,0.321,0.303,0.170,0.101,northwest,6.7,No
2018/01/14,01:10,0.339,0.205,0.344,0.320,0.304,0.169,0.101,northwest,4.9,No
2018/01/14,01:20,0.340,0.206,0.342,0.322,0.303,0.169,0.102,north-northwest,4.9,No
2018/01/14,01:30,0.340,0.206,0.342,0.320,0.303,0.169,0.101,north,5.5,No
2018/01/14,01:40,0.339,0.205,0.342,0.321,0.303,0.170,0.102,north,5.5,No
2018/01/14,01:50,0.339,0.206,0.343,0.322,0.303,0.170,0.101,north-northeast,3.9,No
2018/01/14,02:00,0.338,0.204,0.343,0.322,0.305,0.169,0.101,north,5.5,No
2018/01/14,02:10,0.340,0.205,0.344,0.322,0.305,0.169,0.102,north,4.8,No
2018/01/14,02:20,0.341,0.207,0.342,0.322,0.303,0.169,0.101,north-northeast,4.5,No
2018/01/14,02:30,0.339,0.206,0.342,0.319,0.303,0.169,0.101,north,4.9,No
2018/01/14,02:40,0.340,0.205,0.342,0.321,0.302,0.170,0.101,north,6.3,No
2018/01/14,02:50,0.340,0.205,0.343,0.322,0.302,0.170,0.102,north,5.3,No
2018/01/14,03:00,0.339,0.205,0.343,0.321,0.303,0.169,0.101,north,5.9,No
2018/01/14,03:10,0.340,0.205,0.343,0.323,0.302,0.170,0.101,north-northwest,3.7,No
2018/01/14,03:20,0.338,0.205,0.344,0.321,0.302,0.169,0.100,northwest,6.6,No
2018/01/14,03:30,0.340,0.205,0.343,0.320,0.303,0.169,0.102,northwest,6.2,No
2018/01/14,03:40,0.339,0.205,0.342,0.322,0.302,0.170,0.102,northwest,8.1,No
2018/01/14,03:50,0.340,0.204,0.343,0.322,0.305,0.170,0.101,north-northwest,9.0,No
2018/01/14,04:00,0.340,0.205,0.341,0.322,0.303,0.169,0.101,north-northwest,7.9,No
2018/01/14,04:10,0.340,0.205,0.343,0.321,0.303,0.169,0.101,northwest,7.1,No
2018/01/14,04:20,0.341,0.206,0.343,0.322,0.304,0.170,0.101,northwest,5.5,No
2018/01/14,04:30,0.341,0.206,0.343,0.322,0.304,0.170,0.101,northwest,4.8,No
2018/01/14,04:40,0.340,0.205,0.343,0.322,0.304,0.170,0.101,northwest,5.4,No
2018/01/14,04:50,0.340,0.204,0.341,0.322,0.303,0.170,0.102,north-northwest,8.4,No
2018/01/14,05:00,0.340,0.205,0.344,0.321,0.303,0.170,0.101,north-northwest,7.3,No
2018/01/14,05:10,0.340,0.205,0.343,0.320,0.303,0.169,0.101,northwest,8.2,No
2018/01/14,05:20,0.340,0.205,0.343,0.321,0.302,0.170,0.101,northwest,7.8,No
2018/01/14,05:30,0.340,0.205,0.344,0.320,0.304,0.169,0.100,north-northwest,7.7,No
2018/01/14,05:40,0.341,0.205,0.343,0.320,0.303,0.169,0.101,north-northwest,8.4,No
2018/01/14,05:50,0.339,0.205,0.342,0.321,0.302,0.170,0.101,north-northwest,8.7,No
2018/01/14,06:00,0.342,0.205,0.344,0.320,0.304,0.170,0.101,north-northwest,4.1,No
2018/01/14,06:10,0.339,0.205,0.341,0.322,0.303,0.169,0.101,north-northwest,4.5,No
2018/01/14,06:20,0.339,0.205,0.344,0.319,0.303,0.169,0.100,north-northwest,6.3,No
2018/01/14,06:30,0.340,0.205,0.343,0.321,0.303,0.169,0.101,north-northwest,5.4,No
2018/01/14,06:40,0.340,0.205,0.343,0.321,0.302,0.170,0.101,north-northwest,6.0,No
2018/01/14,06:50,0.340,0.206,0.343,0.320,0.302,0.169,0.101,north-northwest,5.3,No
2018/01/14,07:00,0.341,0.204,0.343,0.320,0.304,0.169,0.100,north-northwest,4.5,No
2018/01/14,07:10,0.339,0.205,0.343,0.320,0.302,0.169,0.101,north-northwest,4.9,No
2018/01/14,07:20,0.340,0.205,0.341,0.320,0.303,0.169,0.101,north-northwest,4.9,No
2018/01/14,07:30,0.341,0.204,0.343,0.321,0.303,0.170,0.101,north-northwest,5.4,No
2018/01/14,07:40,0.340,0.206,0.342,0.321,0.303,0.169,0.101,north-northwest,5.1,No
2018/01/14,07:50,0.339,0.206,0.342,0.320,0.303,0.169,0.101,north-northwest,4.0,No
2018/01/14,08:00,0.339,0.205,0.343,0.321,0.302,0.170,0.101,north-northwest,5.5,No
2018/01/14,08:10,0.339,0.207,0.342,0.320,0.302,0.169,0.101,north-northwest,5.4,No
2018/01/14,08:20,0.339,0.205,0.343,0.321,0.302,0.170,0.101,north-northwest,5.0,No
2018/01/14,08:30,0.340,0.204,0.342,0.320,0.303,0.170,0.101,north-northwest,4.8,No
2018/01/14,08:40,0.339,0.205,0.343,0.319,0.303,0.169,0.101,north,4.2,No
2018/01/14,08:50,0.340,0.206,0.341,0.318,0.302,0.169,0.102,north,5.5,No
2018/01/14,09:00,0.340,0.205,0.342,0.321,0.302,0.169,0.101,north,6.7,No
2018/01/14,09:10,0.340,0.205,0.341,0.322,0.302,0.169,0.101,north,6.8,No
2018/01/14,09:20,0.340,0.204,0.343,0.320,0.303,0.169,0.101,north,6.4,No
2018/01/14,09:30,0.340,0.204,0.343,0.319,0.303,0.170,0.101,north,7.7,No
2018/01/14,09:40,0.340,0.204,0.343,0.320,0.303,0.168,0.102,north,7.7,No
2018/01/14,09:50,0.341,0.205,0.341,0.320,0.303,0.170,0.101,north,8.1,No
2018/01/14,10:00,0.340,0.205,0.343,0.321,0.303,0.170,0.102,north,6.8,No
2018/01/14,10:10,0.339,0.204,0.341,0.321,0.303,0.170,0.100,north,6.3,No
2018/01/14,10:20,0.339,0.205,0.342,0.320,0.303,0.169,0.100,north,7.3,No
2018/01/14,10:30,0.338,0.205,0.343,0.320,0.304,0.170,0.102,north-northeast,7.0,No
2018/01/14,10:40,0.339,0.206,0.343,0.322,0.305,0.171,0.101,north,6.4,No
2018/01/14,10:50,0.339,0.204,0.342,0.321,0.303,0.169,0.101,north-northeast,7.8,No
2018/01/14,11:00,0.338,0.205,0.342,0.320,0.304,0.169,0.101,north,7.3,No
2018/01/14,11:10,0.339,0.205,0.341,0.322,0.304,0.170,0.102,north,8.2,No
2018/01/14,11:20,0.339,0.205,0.341,0.321,0.304,0.170,0.101,north,5.6,No
2018/01/14,11:30,0.339,0.205,0.342,0.320,0.304,0.170,0.102,north,6.8,No
2018/01/14,11:40,0.339,0.206,0.341,0.322,0.306,0.170,0.101,north,6.2,No
2018/01/14,11:50,0.338,0.205,0.344,0.321,0.305,0.170,0.102,north-northeast,7.9,No
2018/01/14,12:00,0.338,0.205,0.341,0.319,0.303,0.169,0.101,north,6.6,No
2018/01/14,12:10,0.338,0.205,0.341,0.323,0.306,0.170,0.100,north-northeast,8.1,No
2018/01/14,12:20,0.339,0.205,0.343,0.321,0.303,0.170,0.101,north-northeast,7.3,No
2018/01/14,12:30,0.338,0.205,0.339,0.321,0.305,0.169,0.101,north-northeast,7.5,No
2018/01/14,12:40,0.339,0.205,0.342,0.321,0.305,0.170,0.100,north-northeast,7.0,No
2018/01/14,12:50,0.340,0.205,0.341,0.320,0.305,0.170,0.102,north-northeast,6.1,No
2018/01/14,13:00,0.339,0.206,0.342,0.321,0.305,0.170,0.101,north-northeast,7.0,No
2018/01/14,13:10,0.339,0.204,0.342,0.320,0.306,0.169,0.101,north-northeast,7.3,No
2018/01/14,13:20,0.340,0.206,0.342,0.322,0.304,0.170,0.101,north-northeast,7.3,No
2018/01/14,13:30,0.340,0.205,0.342,0.323,0.304,0.169,0.100,north-northeast,5.5,No
2018/01/14,13:40,0.340,0.205,0.343,0.322,0.306,0.171,0.101,north-northeast,6.1,No
2018/01/14,13:50,0.341,0.205,0.340,0.320,0.305,0.170,0.101,northeast,4.6,No
2018/01/14,14:00,0.340,0.206,0.341,0.320,0.305,0.170,0.101,north-northeast,5.6,No
2018/01/14,14:10,0.339,0.205,0.342,0.322,0.303,0.169,0.101,north-northeast,7.8,No
2018/01/14,14:20,0.339,0.205,0.341,0.320,0.304,0.170,0.101,north-northeast,7.3,No
2018/01/14,14:30,0.341,0.204,0.341,0.321,0.303,0.169,0.101,north-northeast,7.9,No
2018/01/14,14:40,0.340,0.206,0.343,0.321,0.305,0.169,0.101,north-northeast,6.5,No
2018/01/14,14:50,0.340,0.206,0.342,0.321,0.304,0.169,0.101,northeast,7.0,No
2018/01/14,15:00,0.340,0.205,0.343,0.321,0.305,0.169,0.100,northeast,6.3,No
2018/01/14,15:10,0.340,0.205,0.343,0.321,0.305,0.168,0.100,north-northeast,6.2,No
2018/01/14,15:20,0.339,0.206,0.342,0.321,0.305,0.169,0.101,northwest,2.6,No
2018/01/14,15:30,0.342,0.207,0.342,0.321,0.304,0.171,0.102,west,1.5,No
2018/01/14,15:40,0.339,0.206,0.342,0.322,0.303,0.169,0.101,west,3.4,No
2018/01/14,15:50,0.341,0.205,0.343,0.322,0.305,0.169,0.102,west-northwest,2.7,No
2018/01/14,16:00,0.341,0.206,0.341,0.322,0.304,0.169,0.101,west-northwest,2.7,No
2018/01/14,16:10,0.340,0.205,0.343,0.322,0.303,0.170,0.102,north-northwest,1.8,No
2018/01/14,16:20,0.341,0.207,0.342,0.321,0.304,0.170,0.102,north-northwest,1.0,No
2018/01/14,16:30,0.340,0.206,0.341,0.322,0.305,0.169,0.101,northwest,2.4,No
2018/01/14,16:40,0.339,0.205,0.342,0.324,0.304,0.171,0.101,northwest,1.9,No
2018/01/14,16:50,0.340,0.206,0.344,0.322,0.305,0.170,0.101,west-northwest,1.2,No
2018/01/14,17:00,0.339,0.206,0.341,0.322,0.304,0.171,0.101,northwest,1.2,No
2018/01/14,17:10,0.340,0.206,0.341,0.322,0.305,0.170,0.102,northwest,0.7,No
2018/01/14,17:20,0.340,0.205,0.342,0.323,0.305,0.170,0.102,northwest,0.7,No
2018/01/14,17:30,0.341,0.206,0.343,0.321,0.303,0.170,0.102,west-northwest,1.3,No
2018/01/14,17:40,0.340,0.206,0.341,0.321,0.304,0.170,0.101,west-northwest,3.6,No
2018/01/14,17:50,0.342,0.205,0.343,0.320,0.304,0.169,0.101,west-northwest,3.2,No
2018/01/14,18:00,0.340,0.205,0.340,0.321,0.304,0.170,0.101,west-northwest,2.9,No
2018/01/14,18:10,0.340,0.205,0.342,0.323,0.304,0.169,0.101,west-northwest,3.3,No
2018/01/14,18:20,0.339,0.205,0.342,0.322,0.304,0.170,0.101,west-northwest,3.4,No
2018/01/14,18:30,0.339,0.205,0.342,0.322,0.303,0.170,0.102,northwest,2.5,No
2018/01/14,18:40,0.340,0.206,0.342,0.321,0.304,0.171,0.101,northwest,2.0,No
2018/01/14,18:50,0.340,0.205,0.343,0.322,0.304,0.170,0.101,northwest,2.7,No
2018/01/14,19:00,0.341,0.205,0.343,0.323,0.304,0.170,0.101,northwest,2.1,No
2018/01/14,19:10,0.340,0.206,0.343,0.324,0.303,0.170,0.101,northwest,1.7,No
2018/01/14,19:20,0.341,0.207,0.340,0.323,0.303,0.169,0.102,north-northwest,1.5,No
2018/01/14,19:30,0.339,0.206,0.342,0.321,0.304,0.170,0.101,north,1.0,No
2018/01/14,19:40,0.340,0.206,0.343,0.321,0.304,0.170,0.101,north,1.9,No
2018/01/14,19:50,0.341,0.205,0.341,0.320,0.303,0.169,0.102,north,2.6,No
2018/01/14,20:00,0.342,0.206,0.343,0.322,0.305,0.170,0.101,north,2.4,No
2018/01/14,20:10,0.341,0.206,0.343,0.323,0.304,0.170,0.101,north,3.6,No
2018/01/14,20:20,0.340,0.205,0.343,0.323,0.303,0.170,0.101,north,2.4,No
2018/01/14,20:30,0.340,0.205,0.343,0.322,0.304,0.169,0.101,north,2.1,No
2018/01/14,20:40,0.339,0.204,0.343,0.322,0.304,0.169,0.101,north-northwest,2.5,No
2018/01/14,20:50,0.340,0.205,0.344,0.322,0.305,0.170,0.101,north,2.1,No
2018/01/14,21:00,0.341,0.206,0.343,0.321,0.306,0.170,0.102,north-northwest,1.6,No
2018/01/14,21:10,0.340,0.206,0.341,0.322,0.304,0.170,0.101,north-northwest,1.1,No
2018/01/14,21:20,0.340,0.206,0.343,0.323,0.303,0.170,0.101,northwest,0.9,No
2018/01/14,21:30,0.341,0.205,0.342,0.322,0.304,0.169,0.101,-,CALM,No
2018/01/14,21:40,0.340,0.206,0.343,0.322,0.304,0.170,0.101,-,CALM,No
2018/01/14,21:50,0.340,0.205,0.342,0.322,0.305,0.170,0.102,-,CALM,No
2018/01/14,22:00,0.340,0.206,0.344,0.322,0.304,0.170,0.101,south-southwest,0.9,No
2018/01/14,22:10,0.341,0.205,0.343,0.322,0.303,0.171,0.101,south-southwest,1.4,No
2018/01/14,22:20,0.341,0.206,0.343,0.322,0.305,0.171,0.101,south-southwest,1.8,No
2018/01/14,22:30,0.338,0.205,0.342,0.322,0.303,0.170,0.102,south-southwest,1.7,No
2018/01/14,22:40,0.341,0.206,0.344,0.323,0.305,0.170,0.101,south-southwest,1.6,No
2018/01/14,22:50,0.341,0.206,0.343,0.323,0.305,0.170,0.102,south-southwest,1.9,No
2018/01/14,23:00,0.341,0.206,0.343,0.322,0.306,0.170,0.101,south-southwest,2.3,No
2018/01/14,23:10,0.341,0.205,0.343,0.323,0.304,0.170,0.102,south-southwest,2.2,No
2018/01/14,23:20,0.341,0.205,0.343,0.323,0.304,0.171,0.102,south-southwest,2.5,No
2018/01/14,23:30,0.341,0.205,0.343,0.322,0.303,0.170,0.101,south-southwest,3.2,No
2018/01/14,23:40,0.340,0.205,0.342,0.322,0.303,0.170,0.102,south-southwest,2.6,No
2018/01/14,23:50,0.340,0.205,0.343,0.323,0.304,0.171,0.102,south-southwest,3.8,No
